Location: Maiden
(35.5760°N, 81.2120°W)
Time: 17:36:12
(UTC-04:00)

ARGOS - Pass Details

Date: 14 June 2018
Orbit: 819 x 835 km, 98.6° (Epoch: 20 August)

Event Time Altitude Azimuth Distance (km) Brightness Sun altitude
Exits shadow 22:44:21 20° 194° (SSW) 1,826 4.6 -19.9°
Maximum altitude 22:47:52 48° 260° (W) 1,077 3.9 -20.3°
Drops below altitude 10° 22:53:07 10° 335° (NNW) 2,452 6.7 -21.0°
Sets 22:55:34 0° 341° (NNW) 3,390 7.6 -21.3°
